Showing default

TIGER-7, 59141

Orbit data source: Space-Track

TIGER-7, 59141 is a payload satellite owned by OQ Tech (RW) in SSO that was launched on Mon, 04 Mar 2024 UTC via an FALCON 9 launch vehicle from the Air Force Western Test Range (AFWTR). Payload-class satellites include a variety of spacecraft equipped with specific instruments for various scientific and technological missions. These include communications satellites like Starlink; space stations such as the ISS; scientific satellites like the Hubble; Earth observation satellites from companies like Planet Labs, Umbra, and HawkEye 360; GPS; miniature CubeSats for education and research; and military/defense satellites.

Loading next visibility...
Identifier
59141, 2024-043AV
Orbit
SSO
Country
Flag of RWRW / RWA
Related business
Manufacturer
NanoAvionics
Mission
Operational Commercial Communications
Bus & Motor
CUBESAT 6U, Unknown motor
Mass
~10 kg wet, ~10 kg dry
Launch date (UTC)
2024-03-04 (2 years ago)
Launch vehicle
FALCON 9
Launch site
Air Force Western Test Range (AFWTR)
Object type
Payload
Rocket body
Debris
Shape & HBR
Box + 2 Pan, 0.1 m
Radar Cross Section
0.080 m², Small (<0.1 m²)

Expand to show TLE details & history
Last TLE update: 18 hours ago

TLE from 18 hours ago
0 TIGER-7
1 59141U 24043AV  26033.83539712  .00013651  00000-0  29229-3 0  9998
2 59141  97.5287 179.3338 0005749 308.5179  51.5553 15.44890280107207
Epoch: 2026-02-02T20:02Z
TLE epoch observation values (Epoch: 2026-02-02T20:02:58.311Z)
Latitude
-0.00003°
Longitude
105.56586°
Altitude
432.388 km
Speed
7.654 km/s
True Right ascension
11h 57m 20s
True Declination
0° 00' 00"
Sunlit
Object was in full shadow at epoch
Visualization orbit readout
Latitude
Unknown
Longitude
Unknown
Altitude
Unknown
Speed
Unknown
Apparent Right ascension
Unknown
Apparent Declination
Unknown
Sunlit
N/A
Visualization observer readout
Local Sidereal Time
15:39:35
Azimuth
Unknown
Elevation
Unknown
Doppler factor
Unknown
Orbital elements
Apogee altitude
432.552 km
Perigee altitude
424.725 km
Semi-major axis
6,806.776 km
Eccentricity
0.00057
Inclination
97.5287°
RAAN
179.3338°
Arg. of periapsis
308.5179°
True anomaly
51.60692°
Mean anomaly
51.5553°
Eccentric anomaly
51.58111°
Mean motion
3.86484 °/min
Orbital period
93.15 mins
BSTAR
0.00029229
Loading maneuver chart data...
Computing Atmospheric mass density...
Loading historical data...
Loading historical data...
Loading historical data...
Loading historical data...
Loading historical data...
Loading historical data...
Loading historical data...

Documentation

Showing up to 5 results
|